Weather in Virbalis

Lithuania     54°37′34″N   22°49′10″E
temp.,
°C
wind,
m/s
gust,
m/s
humid.,
%
clouds,
%
prec.,
mm/h
press.,
hPa
HPBL,
m
18 may, tue
tue1800:00+11e2293100 0.0 100422
03:00+10ene2294100 0.0 100419
06:00+10nne2395100 0.0 100466
09:00+14nne3578100 0.0 1004397
12:00+17nne4564100 0.0 10041274
15:00+17nne5658100 0.1 10041296
18:00+17nne465834 0.0 10041180
21:00+13ne33845 0.0 100548
19 may, wed
wed1900:00+9n229228 0.0 100517
03:00+8wnw3588100 0.0 100594
06:00+7wnw3797100 0.0 1005156
09:00+12wnw58729 0.0 1006491
12:00+16wnw786194 0.0 10061384
15:00+16wnw675999 0.1 10061613
18:00+15wnw686688 0.0 10071112
21:00+10wnw6128536 0.0 1009493
20 may, thu
thu2000:00+8w4109333 0.0 1010305
03:00+8w379398 0.0 1011257
06:00+8w378338 0.0 1011237
09:00+12w46737 0.0 1012417
12:00+16wnw67595 0.0 10111323
15:00+16wnw885488 0.1 10121504
18:00+14wnw79620 0.0 10131271
21:00+10wnw510810 0.0 1014523
21 may, fri
fri2100:00+6w410960 0.0 1015322
03:00+4wsw410950 0.0 1015226
06:00+4wsw411945 0.0 1015275
09:00+10wsw59710 0.0 1016648
12:00+13wsw575797 0.0 10161603
15:00+14sw466094 0.0 10151296
18:00+15wsw5767100 0.4 10141152
21:00+12s338272 0.9 101353
22 may, sat
sat2200:00+10sse41284100 0.0 1012260
03:00+11s6176998 0.0 1011557
06:00+12s71567100 0.0 1009592
09:00+14s61373100 0.0 1008575
12:00+16s61167100 0.0 1008851
15:00+19s71063100 0.3 10071388
18:00+17s61167100 0.3 1005811
21:00+15s61482100 1.6 1004570